Location: Chippewa Lake
(41.0698°N, 81.9010°W)
Time: 22:07:10
(UTC+00:00)

Cosmos 2084 - Pass Details

Date: 09 May 2021
Orbit: 542 x 640 km, 62.8° (Epoch: 17 June)

Event Time Altitude Azimuth Distance (km) Brightness Sun altitude
Exits shadow 02:06:39 29° 152° (SSE) 1,037 4.2 -15.8°
Maximum altitude 02:07:48 34° 118° (ESE) 920 3.9 -16.0°
Drops below altitude 10° 02:11:36 10° 53° (NE) 1,861 5.9 -16.5°
Sets 02:13:59 0° 44° (NE) 2,779 6.9 -16.8°
